Location: Braunsdorf
(50.7357°N, 11.9136°E)
Time: 09:20:32
(UTC+00:00)

Cosmos 1743 Rocket - Pass Details

Date: 17 February 2020
Orbit: 604 x 632 km, 82.6° (Epoch: 29 March)

Event Time Altitude Azimuth Distance (km) Brightness Sun altitude
Rises 05:06:07 0° 340° (NNW) 2,876 6.7 -12.6°
Reaches altitude 10° 05:08:34 10° 329° (NNW) 1,966 5.8 -12.2°
Maximum altitude 05:12:15 28° 271° (W) 1,159 4.4 -11.6°
Drops below altitude 10° 05:15:55 10° 213° (SSW) 1,952 5.9 -11.0°
Sets 05:18:21 0° 201° (SSW) 2,851 6.8 -10.7°
